Location: Maignaut
(43.8886°N, 0.4051°E)
Time: 19:05:59
(UTC+00:00)

ATLAS 5 CENTAUR R/B - Pass Details

Date: 17 January 2021
Orbit: 511 x 1147 km, 63.3° (Epoch: 16 February)

Event Time Altitude Azimuth Distance (km) Brightness Sun altitude
Rises 19:37:00 0° 268° (W) 2,703 6.1 -29.8°
Reaches altitude 10° 19:39:49 10° 291° (WNW) 1,884 4.8 -30.3°
Maximum altitude 19:42:29 16° 331° (NNW) 1,603 3.9 -30.8°
Enters shadow 19:42:31 16° 331° (NNW) 1,604 3.9 -30.8°
